owner,sensor,date,latitude,longitude,vertical_datum,wind_speed,wind_to_direction,wind_speed_of_gust,qcFlag 
TABS,ioos:station:wmo:42046:1,2006-03-01T00:00:00Z,27.8903,-94.0367,4.0,7.0,120.0,10.0,'11111222,11111222,11111222' 
TABS,ioos:station:wmo:42046:1,2006-03-01T00:30:00Z,27.8903,-94.0367,4.0,7.0,130.0,10.0,'11111222,11111222,11111222' 
TABS,ioos:station:wmo:42046:1,2006-03-01T01:00:00Z,27.8903,-94.0367,4.0,7.0,130.0,9.0,'11111222,11111222,11111222' 
TABS,ioos:station:wmo:42046:1,2006-03-01T01:30:00Z,27.8903,-94.0367,4.0,8.0,130.0,10.0,'11111222,11111222,11111222' 
TABS,ioos:station:wmo:42046:1,2006-03-01T02:00:00Z,27.8903,-94.0367,4.0,8.0,130.0,11.0,'11111222,11111222,11111222' 
TABS,ioos:station:wmo:42046:1,2006-03-01T02:30:00Z,27.8903,-94.0367,4.0,8.0,130.0,10.0,'11111222,11111222,11111222' 
TABS,ioos:station:wmo:42046:1,2006-03-01T03:00:00Z,27.8903,-94.0367,4.0,8.0,140.0,11.0,'11111222,11111222,11111222' 
TABS,ioos:station:wmo:42046:1,2006-03-01T03:30:00Z,27.8903,-94.0367,4.0,8.0,140.0,11.0,'11111222,11111222,11111222' 
TABS,ioos:station:wmo:42046:1,2006-03-01T04:00:00Z,27.8903,-94.0367,4.0,8.0,150.0,10.0,'11111222,11111222,11111222' 
TABS,ioos:station:wmo:42046:1,2006-03-01T04:30:00Z,27.8903,-94.0367,4.0,8.0,150.0,10.0,'11111222,11111222,11111222' 
TABS,ioos:station:wmo:42046:1,2006-03-01T05:00:00Z,27.8903,-94.0367,4.0,8.0,150.0,11.0,'11111222,11111222,11111222' 
TABS,ioos:station:wmo:42046:1,2006-03-01T05:30:00Z,27.8903,-94.0367,4.0,8.0,150.0,11.0,'11111222,11111222,11111222' 
TABS,ioos:station:wmo:42046:1,2006-03-01T06:00:00Z,27.8903,-94.0367,4.0,8.0,160.0,10.0,'11111222,11111222,11111222' 
TABS,ioos:station:wmo:42046:1,2006-03-01T06:30:00Z,27.8903,-94.0367,4.0,9.0,160.0,12.0,'11111222,11111222,11111222' 
TABS,ioos:station:wmo:42046:1,2006-03-01T07:00:00Z,27.8903,-94.0367,4.0,8.0,170.0,10.0,'11111222,11111222,11111222' 
TABS,ioos:station:wmo:42046:1,2006-03-01T07:30:00Z,27.8903,-94.0367,4.0,8.0,170.0,11.0,'11111222,11111222,11111222' 
TABS,ioos:station:wmo:42046:1,2006-03-01T08:00:00Z,27.8903,-94.0367,4.0,8.0,180.0,10.0,'11111222,11111222,11111222' 
TABS,ioos:station:wmo:42046:1,2006-03-01T08:30:00Z,27.8903,-94.0367,4.0,8.0,170.0,10.0,'11111222,11111222,11111222' 
TABS,ioos:station:wmo:42046:1,2006-03-01T09:00:00Z,27.8903,-94.0367,4.0,8.0,170.0,11.0,'11111222,11111222,11111222' 
TABS,ioos:station:wmo:42046:1,2006-03-01T09:30:00Z,27.8903,-94.0367,4.0,7.0,170.0,9.0,'11111222,11111222,11111222' 
TABS,ioos:station:wmo:42046:1,2006-03-01T10:00:00Z,27.8903,-94.0367,4.0,7.0,170.0,9.0,'11111222,11111222,11111222' 
TABS,ioos:station:wmo:42046:1,2006-03-01T10:30:00Z,27.8903,-94.0367,4.0,7.0,190.0,9.0,'11111222,11111222,11111222' 
TABS,ioos:station:wmo:42046:1,2006-03-01T11:00:00Z,27.8903,-94.0367,4.0,7.0,190.0,10.0,'11111222,11111222,11111222' 
TABS,ioos:station:wmo:42046:1,2006-03-01T11:30:00Z,27.8903,-94.0367,4.0,7.0,180.0,9.0,'11111222,11111222,11111222' 
TABS,ioos:station:wmo:42046:1,2006-03-01T12:00:00Z,27.8903,-94.0367,4.0,6.0,180.0,8.0,'11111222,11111222,11111222' 
TABS,ioos:station:wmo:42046:1,2006-03-01T12:30:00Z,27.8903,-94.0367,4.0,6.0,170.0,8.0,'11111222,11111222,11111222' 
TABS,ioos:station:wmo:42046:1,2006-03-01T13:00:00Z,27.8903,-94.0367,4.0,6.0,170.0,7.0,'11111222,11111222,11111222' 
TABS,ioos:station:wmo:42046:1,2006-03-01T13:30:00Z,27.8903,-94.0367,4.0,6.0,160.0,8.0,'11111222,11111222,11111222' 
TABS,ioos:station:wmo:42046:1,2006-03-01T14:00:00Z,27.8903,-94.0367,4.0,7.0,160.0,9.0,'11111222,11111222,11111222' 
TABS,ioos:station:wmo:42046:1,2006-03-01T14:30:00Z,27.8903,-94.0367,4.0,7.0,160.0,10.0,'11111222,11111222,11111222' 
TABS,ioos:station:wmo:42046:1,2006-03-01T15:00:00Z,27.8903,-94.0367,4.0,8.0,170.0,11.0,'11111222,11111222,11111222' 
TABS,ioos:station:wmo:42046:1,2006-03-01T15:30:00Z,27.8903,-94.0367,4.0,8.0,170.0,11.0,'11111222,11111222,11111222' 
TABS,ioos:station:wmo:42046:1,2006-03-01T16:00:00Z,27.8903,-94.0367,4.0,7.0,170.0,9.0,'11111222,11111222,11111222' 
TABS,ioos:station:wmo:42046:1,2006-03-01T16:30:00Z,27.8903,-94.0367,4.0,7.0,170.0,9.0,'11111222,11111222,11111222' 
TABS,ioos:station:wmo:42046:1,2006-03-01T17:00:00Z,27.8903,-94.0367,4.0,8.0,170.0,10.0,'11111222,11111222,11111222' 
TABS,ioos:station:wmo:42046:1,2006-03-01T17:30:00Z,27.8903,-94.0367,4.0,7.0,160.0,9.0,'11111222,11111222,11111222' 
TABS,ioos:station:wmo:42046:1,2006-03-01T18:00:00Z,27.8903,-94.0367,4.0,8.0,170.0,10.0,'11111222,11111222,11111222' 
TABS,ioos:station:wmo:42046:1,2006-03-01T18:30:00Z,27.8903,-94.0367,4.0,7.0,170.0,9.0,'11111222,11111222,11111222' 
TABS,ioos:station:wmo:42046:1,2006-03-01T19:00:00Z,27.8903,-94.0367,4.0,8.0,170.0,10.0,'11111222,11111222,11111222' 
TABS,ioos:station:wmo:42046:1,2006-03-01T19:30:00Z,27.8903,-94.0367,4.0,7.0,170.0,9.0,'11111222,11111222,11111222' 
TABS,ioos:station:wmo:42046:1,2006-03-01T20:00:00Z,27.8903,-94.0367,4.0,7.0,170.0,10.0,'11111222,11111222,11111222' 
TABS,ioos:station:wmo:42046:1,2006-03-01T20:30:00Z,27.8903,-94.0367,4.0,7.0,170.0,9.0,'11111222,11111222,11111222' 
TABS,ioos:station:wmo:42046:1,2006-03-01T21:00:00Z,27.8903,-94.0367,4.0,6.0,170.0,8.0,'11111222,11111222,11111222' 
TABS,ioos:station:wmo:42046:1,2006-03-01T21:30:00Z,27.8903,-94.0367,4.0,7.0,160.0,9.0,'11111222,11111222,11111222' 
TABS,ioos:station:wmo:42046:1,2006-03-01T22:00:00Z,27.8903,-94.0367,4.0,7.0,170.0,9.0,'11111222,11111222,11111222' 
TABS,ioos:station:wmo:42046:1,2006-03-01T22:30:00Z,27.8903,-94.0367,4.0,8.0,160.0,10.0,'11111222,11111222,11111222' 
TABS,ioos:station:wmo:42046:1,2006-03-01T23:00:00Z,27.8903,-94.0367,4.0,8.0,170.0,10.0,'11111222,11111222,11111222' 
TABS,ioos:station:wmo:42046:1,2006-03-01T23:30:00Z,27.8903,-94.0367,4.0,8.0,170.0,12.0,'11111222,11111222,11111222' 
TABS,ioos:station:wmo:42046:1,2006-03-02T00:00:00Z,27.8903,-94.0367,4.0,9.0,180.0,12.0,'11111222,11111222,11111222' 
TABS,ioos:station:wmo:42046:1,2006-03-02T00:30:00Z,27.8903,-94.0367,4.0,10.0,170.0,15.0,'11111222,11111222,11111222' 
TABS,ioos:station:wmo:42046:1,2006-03-02T01:00:00Z,27.8903,-94.0367,4.0,10.0,180.0,13.0,'11111222,11111222,11111222' 
TABS,ioos:station:wmo:42046:1,2006-03-02T01:30:00Z,27.8903,-94.0367,4.0,10.0,180.0,14.0,'11111222,11111222,11111222' 
TABS,ioos:station:wmo:42046:1,2006-03-02T02:00:00Z,27.8903,-94.0367,4.0,10.0,190.0,13.0,'11111222,11111222,11111222' 
TABS,ioos:station:wmo:42046:1,2006-03-02T02:30:00Z,27.8903,-94.0367,4.0,9.0,190.0,12.0,'11111222,11111222,11111222' 
TABS,ioos:station:wmo:42046:1,2006-03-02T03:00:00Z,27.8903,-94.0367,4.0,9.0,200.0,12.0,'11111222,11111222,11111222' 
TABS,ioos:station:wmo:42046:1,2006-03-02T03:30:00Z,27.8903,-94.0367,4.0,9.0,210.0,12.0,'11111222,11111222,11111222' 
TABS,ioos:station:wmo:42046:1,2006-03-02T04:00:00Z,27.8903,-94.0367,4.0,10.0,210.0,13.0,'11111222,11111222,11111222' 
TABS,ioos:station:wmo:42046:1,2006-03-02T04:30:00Z,27.8903,-94.0367,4.0,10.0,210.0,13.0,'11111222,11111222,11111222' 
TABS,ioos:station:wmo:42046:1,2006-03-02T05:00:00Z,27.8903,-94.0367,4.0,10.0,220.0,13.0,'11111222,11111222,11111222' 
TABS,ioos:station:wmo:42046:1,2006-03-02T05:30:00Z,27.8903,-94.0367,4.0,10.0,220.0,13.0,'11111222,11111222,11111222' 
TABS,ioos:station:wmo:42046:1,2006-03-02T06:00:00Z,27.8903,-94.0367,4.0,11.0,220.0,14.0,'11111222,11111222,11111222' 
TABS,ioos:station:wmo:42046:1,2006-03-02T06:30:00Z,27.8903,-94.0367,4.0,10.0,220.0,13.0,'11111222,11111222,11111222' 
TABS,ioos:station:wmo:42046:1,2006-03-02T07:00:00Z,27.8903,-94.0367,4.0,10.0,230.0,14.0,'11111222,11111222,11111222' 
TABS,ioos:station:wmo:42046:1,2006-03-02T07:30:00Z,27.8903,-94.0367,4.0,10.0,230.0,14.0,'11111222,11111222,11111222' 
TABS,ioos:station:wmo:42046:1,2006-03-02T08:00:00Z,27.8903,-94.0367,4.0,10.0,230.0,12.0,'11111222,11111222,11111222' 
TABS,ioos:station:wmo:42046:1,2006-03-02T08:30:00Z,27.8903,-94.0367,4.0,10.0,230.0,13.0,'11111222,11111222,11111222' 
TABS,ioos:station:wmo:42046:1,2006-03-02T09:00:00Z,27.8903,-94.0367,4.0,10.0,230.0,13.0,'11111222,11111222,11111222' 
TABS,ioos:station:wmo:42046:1,2006-03-02T09:30:00Z,27.8903,-94.0367,4.0,10.0,230.0,12.0,'11111222,11111222,11111222' 
TABS,ioos:station:wmo:42046:1,2006-03-02T10:00:00Z,27.8903,-94.0367,4.0,10.0,230.0,13.0,'11111222,11111222,11111222' 
TABS,ioos:station:wmo:42046:1,2006-03-02T10:30:00Z,27.8903,-94.0367,4.0,10.0,230.0,13.0,'11111222,11111222,11111222' 
TABS,ioos:station:wmo:42046:1,2006-03-02T11:00:00Z,27.8903,-94.0367,4.0,10.0,230.0,13.0,'11111222,11111222,11111222' 
TABS,ioos:station:wmo:42046:1,2006-03-02T11:30:00Z,27.8903,-94.0367,4.0,9.0,230.0,11.0,'11111222,11111222,11111222' 
TABS,ioos:station:wmo:42046:1,2006-03-02T12:00:00Z,27.8903,-94.0367,4.0,9.0,240.0,12.0,'11111222,11111222,11111222' 
TABS,ioos:station:wmo:42046:1,2006-03-02T12:30:00Z,27.8903,-94.0367,4.0,8.0,240.0,11.0,'11111222,11111222,11111222' 
TABS,ioos:station:wmo:42046:1,2006-03-02T13:00:00Z,27.8903,-94.0367,4.0,9.0,240.0,12.0,'11111222,11111222,11111222' 
TABS,ioos:station:wmo:42046:1,2006-03-02T13:30:00Z,27.8903,-94.0367,4.0,8.0,250.0,11.0,'11111222,11111222,11111222' 
TABS,ioos:station:wmo:42046:1,2006-03-02T14:00:00Z,27.8903,-94.0367,4.0,8.0,250.0,10.0,'11111222,11111222,11111222' 
TABS,ioos:station:wmo:42046:1,2006-03-02T14:30:00Z,27.8903,-94.0367,4.0,8.0,250.0,10.0,'11111222,11111222,11111222' 
TABS,ioos:station:wmo:42046:1,2006-03-02T15:00:00Z,27.8903,-94.0367,4.0,7.0,240.0,9.0,'11111222,11111222,11111222' 
TABS,ioos:station:wmo:42046:1,2006-03-02T15:30:00Z,27.8903,-94.0367,4.0,8.0,240.0,10.0,'11111222,11111222,11111222' 
TABS,ioos:station:wmo:42046:1,2006-03-02T16:00:00Z,27.8903,-94.0367,4.0,8.0,240.0,10.0,'11111222,11111222,11111222' 
TABS,ioos:station:wmo:42046:1,2006-03-02T16:30:00Z,27.8903,-94.0367,4.0,8.0,240.0,10.0,'11111222,11111222,11111222' 
TABS,ioos:station:wmo:42046:1,2006-03-02T17:00:00Z,27.8903,-94.0367,4.0,8.0,230.0,11.0,'11111222,11111222,11111222' 
TABS,ioos:station:wmo:42046:1,2006-03-02T17:30:00Z,27.8903,-94.0367,4.0,8.0,230.0,11.0,'11111222,11111222,11111222' 
TABS,ioos:station:wmo:42046:1,2006-03-02T18:00:00Z,27.8903,-94.0367,4.0,9.0,230.0,11.0,'11111222,11111222,11111222' 
TABS,ioos:station:wmo:42046:1,2006-03-02T18:30:00Z,27.8903,-94.0367,4.0,8.0,230.0,11.0,'11111222,11111222,11111222' 
TABS,ioos:station:wmo:42046:1,2006-03-02T19:00:00Z,27.8903,-94.0367,4.0,9.0,230.0,12.0,'11111222,11111222,11111222' 
TABS,ioos:station:wmo:42046:1,2006-03-02T19:30:00Z,27.8903,-94.0367,4.0,9.0,230.0,11.0,'11111222,11111222,11111222' 
TABS,ioos:station:wmo:42046:1,2006-03-02T20:00:00Z,27.8903,-94.0367,4.0,8.0,240.0,11.0,'11111222,11111222,11111222' 
TABS,ioos:station:wmo:42046:1,2006-03-02T20:30:00Z,27.8903,-94.0367,4.0,8.0,240.0,10.0,'11111222,11111222,11111222' 
TABS,ioos:station:wmo:42046:1,2006-03-02T21:00:00Z,27.8903,-94.0367,4.0,8.0,240.0,11.0,'11111222,11111222,11111222' 
TABS,ioos:station:wmo:42046:1,2006-03-02T21:30:00Z,27.8903,-94.0367,4.0,8.0,240.0,10.0,'11111222,11111222,11111222' 
TABS,ioos:station:wmo:42046:1,2006-03-02T22:00:00Z,27.8903,-94.0367,4.0,8.0,230.0,10.0,'11111222,11111222,11111222' 
TABS,ioos:station:wmo:42046:1,2006-03-02T22:30:00Z,27.8903,-94.0367,4.0,7.0,230.0,10.0,'11111222,11111222,11111222' 
TABS,ioos:station:wmo:42046:1,2006-03-02T23:00:00Z,27.8903,-94.0367,4.0,7.0,240.0,9.0,'11111222,11111222,11111222' 
TABS,ioos:station:wmo:42046:1,2006-03-02T23:30:00Z,27.8903,-94.0367,4.0,7.0,230.0,9.0,'11111222,11111222,11111222' 
TABS,ioos:station:wmo:42046:1,2006-03-03T00:00:00Z,27.8903,-94.0367,4.0,6.0,240.0,8.0,'11111222,11111222,11111222' 
TABS,ioos:station:wmo:42046:1,2006-03-03T00:30:00Z,27.8903,-94.0367,4.0,6.0,240.0,8.0,'11111222,11111222,11111222' 
TABS,ioos:station:wmo:42046:1,2006-03-03T01:00:00Z,27.8903,-94.0367,4.0,6.0,230.0,7.0,'11111222,11111222,11111222' 
TABS,ioos:station:wmo:42046:1,2006-03-03T01:30:00Z,27.8903,-94.0367,4.0,6.0,230.0,8.0,'11111222,11111222,11111222' 
TABS,ioos:station:wmo:42046:1,2006-03-03T02:00:00Z,27.8903,-94.0367,4.0,6.0,230.0,7.0,'11111222,11111222,11111222' 
TABS,ioos:station:wmo:42046:1,2006-03-03T02:30:00Z,27.8903,-94.0367,4.0,5.0,230.0,6.0,'11111222,11111222,11111222' 
TABS,ioos:station:wmo:42046:1,2006-03-03T03:00:00Z,27.8903,-94.0367,4.0,5.0,230.0,6.0,'11111222,11111222,11111222' 
TABS,ioos:station:wmo:42046:1,2006-03-03T03:30:00Z,27.8903,-94.0367,4.0,4.0,230.0,5.0,'11111222,11111222,11111222' 
TABS,ioos:station:wmo:42046:1,2006-03-03T04:00:00Z,27.8903,-94.0367,4.0,4.0,220.0,5.0,'11111222,11111222,11111222' 
TABS,ioos:station:wmo:42046:1,2006-03-03T04:30:00Z,27.8903,-94.0367,4.0,4.0,240.0,6.0,'11111222,11111222,11111222' 
TABS,ioos:station:wmo:42046:1,2006-03-03T05:00:00Z,27.8903,-94.0367,4.0,3.0,270.0,5.0,'11111222,11111222,11111222' 
TABS,ioos:station:wmo:42046:1,2006-03-03T05:30:00Z,27.8903,-94.0367,4.0,3.0,270.0,4.0,'11111222,11111222,11111222' 
TABS,ioos:station:wmo:42046:1,2006-03-03T06:00:00Z,27.8903,-94.0367,4.0,4.0,270.0,4.0,'11111222,11111222,11111222' 
TABS,ioos:station:wmo:42046:1,2006-03-03T06:30:00Z,27.8903,-94.0367,4.0,3.0,250.0,4.0,'11111222,11111222,11111222' 
TABS,ioos:station:wmo:42046:1,2006-03-03T07:00:00Z,27.8903,-94.0367,4.0,3.0,240.0,4.0,'11111222,11111222,11111222' 
TABS,ioos:station:wmo:42046:1,2006-03-03T07:30:00Z,27.8903,-94.0367,4.0,4.0,240.0,4.0,'11111222,11111222,11111222' 
TABS,ioos:station:wmo:42046:1,2006-03-03T08:00:00Z,27.8903,-94.0367,4.0,3.0,240.0,4.0,'11111222,11111222,11111222' 
TABS,ioos:station:wmo:42046:1,2006-03-03T08:30:00Z,27.8903,-94.0367,4.0,3.0,260.0,3.0,'11111222,11111222,11111222' 
TABS,ioos:station:wmo:42046:1,2006-03-03T09:00:00Z,27.8903,-94.0367,4.0,3.0,260.0,3.0,'11111222,11111222,11111222' 
TABS,ioos:station:wmo:42046:1,2006-03-03T09:30:00Z,27.8903,-94.0367,4.0,2.0,260.0,3.0,'11111222,11111222,11111222' 
TABS,ioos:station:wmo:42046:1,2006-03-03T10:00:00Z,27.8903,-94.0367,4.0,3.0,290.0,4.0,'11111222,11111222,11111222' 
TABS,ioos:station:wmo:42046:1,2006-03-03T10:30:00Z,27.8903,-94.0367,4.0,3.0,210.0,4.0,'11111222,11111222,11111222' 
TABS,ioos:station:wmo:42046:1,2006-03-03T11:00:00Z,27.8903,-94.0367,4.0,2.0,240.0,4.0,'11111222,11111222,11111222' 
TABS,ioos:station:wmo:42046:1,2006-03-03T11:30:00Z,27.8903,-94.0367,4.0,2.0,230.0,3.0,'11111222,11111222,11111222' 
TABS,ioos:station:wmo:42046:1,2006-03-03T12:00:00Z,27.8903,-94.0367,4.0,2.0,230.0,3.0,'11111222,11111222,11111222' 
TABS,ioos:station:wmo:42046:1,2006-03-03T12:30:00Z,27.8903,-94.0367,4.0,2.0,230.0,3.0,'11111222,11111222,11111222' 
TABS,ioos:station:wmo:42046:1,2006-03-03T13:00:00Z,27.8903,-94.0367,4.0,4.0,200.0,5.0,'11111222,11111222,11111222' 
TABS,ioos:station:wmo:42046:1,2006-03-03T13:30:00Z,27.8903,-94.0367,4.0,5.0,210.0,7.0,'11111222,11111222,11111222' 
TABS,ioos:station:wmo:42046:1,2006-03-03T14:00:00Z,27.8903,-94.0367,4.0,6.0,220.0,7.0,'11111222,11111222,11111222' 
TABS,ioos:station:wmo:42046:1,2006-03-03T14:30:00Z,27.8903,-94.0367,4.0,5.0,220.0,7.0,'11111222,11111222,11111222' 
TABS,ioos:station:wmo:42046:1,2006-03-03T15:00:00Z,27.8903,-94.0367,4.0,6.0,220.0,8.0,'11111222,11111222,11111222' 
TABS,ioos:station:wmo:42046:1,2006-03-03T15:30:00Z,27.8903,-94.0367,4.0,7.0,230.0,9.0,'11111222,11111222,11111222' 
TABS,ioos:station:wmo:42046:1,2006-03-03T16:00:00Z,27.8903,-94.0367,4.0,7.0,230.0,9.0,'11111222,11111222,11111222' 
TABS,ioos:station:wmo:42046:1,2006-03-03T16:30:00Z,27.8903,-94.0367,4.0,7.0,230.0,10.0,'11111222,11111222,11111222' 
TABS,ioos:station:wmo:42046:1,2006-03-03T17:00:00Z,27.8903,-94.0367,4.0,7.0,230.0,10.0,'11111222,11111222,11111222' 
TABS,ioos:station:wmo:42046:1,2006-03-03T17:30:00Z,27.8903,-94.0367,4.0,8.0,240.0,10.0,'11111222,11111222,11111222' 
TABS,ioos:station:wmo:42046:1,2006-03-03T18:00:00Z,27.8903,-94.0367,4.0,8.0,240.0,11.0,'11111222,11111222,11111222' 
TABS,ioos:station:wmo:42046:1,2006-03-03T18:30:00Z,27.8903,-94.0367,4.0,7.0,240.0,10.0,'11111222,11111222,11111222' 
TABS,ioos:station:wmo:42046:1,2006-03-03T19:00:00Z,27.8903,-94.0367,4.0,7.0,240.0,9.0,'11111222,11111222,11111222' 
TABS,ioos:station:wmo:42046:1,2006-03-03T19:30:00Z,27.8903,-94.0367,4.0,6.0,240.0,8.0,'11111222,11111222,11111222' 
TABS,ioos:station:wmo:42046:1,2006-03-03T20:00:00Z,27.8903,-94.0367,4.0,6.0,240.0,9.0,'11111222,11111222,11111222' 
TABS,ioos:station:wmo:42046:1,2006-03-03T20:30:00Z,27.8903,-94.0367,4.0,7.0,240.0,9.0,'11111222,11111222,11111222' 
TABS,ioos:station:wmo:42046:1,2006-03-03T21:00:00Z,27.8903,-94.0367,4.0,7.0,270.0,10.0,'11111222,11111222,11111222' 
TABS,ioos:station:wmo:42046:1,2006-03-03T21:30:00Z,27.8903,-94.0367,4.0,7.0,270.0,9.0,'11111222,11111222,11111222' 
TABS,ioos:station:wmo:42046:1,2006-03-03T22:00:00Z,27.8903,-94.0367,4.0,8.0,280.0,10.0,'11111222,11111222,11111222' 
TABS,ioos:station:wmo:42046:1,2006-03-03T22:30:00Z,27.8903,-94.0367,4.0,9.0,280.0,11.0,'11111222,11111222,11111222' 
TABS,ioos:station:wmo:42046:1,2006-03-03T23:00:00Z,27.8903,-94.0367,4.0,9.0,310.0,13.0,'11111222,11111222,11111222' 
TABS,ioos:station:wmo:42046:1,2006-03-03T23:30:00Z,27.8903,-94.0367,4.0,10.0,330.0,15.0,'11111222,11111222,11111222' 
TABS,ioos:station:wmo:42046:1,2006-03-04T00:00:00Z,27.8903,-94.0367,4.0,14.0,340.0,19.0,'11111222,11111222,11111222' 
TABS,ioos:station:wmo:42046:1,2006-03-04T00:30:00Z,27.8903,-94.0367,4.0,14.0,350.0,19.0,'11111222,11111222,11111222' 
TABS,ioos:station:wmo:42046:1,2006-03-04T01:00:00Z,27.8903,-94.0367,4.0,13.0,350.0,16.0,'11111222,11111222,11111222' 
TABS,ioos:station:wmo:42046:1,2006-03-04T01:30:00Z,27.8903,-94.0367,4.0,13.0,360.0,17.0,'11111222,11144222,11111222' 
TABS,ioos:station:wmo:42046:1,2006-03-04T02:00:00Z,27.8903,-94.0367,4.0,13.0,350.0,17.0,'11111222,11111222,11111222' 
TABS,ioos:station:wmo:42046:1,2006-03-04T02:30:00Z,27.8903,-94.0367,4.0,13.0,360.0,18.0,'11111222,11144222,11111222' 
TABS,ioos:station:wmo:42046:1,2006-03-04T03:00:00Z,27.8903,-94.0367,4.0,13.0,350.0,17.0,'11111222,11111222,11111222' 
TABS,ioos:station:wmo:42046:1,2006-03-04T03:30:00Z,27.8903,-94.0367,4.0,13.0,360.0,17.0,'11111222,11144222,11111222' 
TABS,ioos:station:wmo:42046:1,2006-03-04T04:00:00Z,27.8903,-94.0367,4.0,12.0,360.0,17.0,'11111222,11144222,11111222' 
TABS,ioos:station:wmo:42046:1,2006-03-04T04:30:00Z,27.8903,-94.0367,4.0,13.0,360.0,17.0,'11111222,11144222,11111222' 
TABS,ioos:station:wmo:42046:1,2006-03-04T05:00:00Z,27.8903,-94.0367,4.0,12.0,360.0,15.0,'11111222,11144222,11111222' 
TABS,ioos:station:wmo:42046:1,2006-03-04T05:30:00Z,27.8903,-94.0367,4.0,12.0,360.0,16.0,'11111222,11144222,11111222' 
TABS,ioos:station:wmo:42046:1,2006-03-04T06:00:00Z,27.8903,-94.0367,4.0,12.0,360.0,15.0,'11111222,11144222,11111222' 
TABS,ioos:station:wmo:42046:1,2006-03-04T06:30:00Z,27.8903,-94.0367,4.0,11.0,350.0,14.0,'11111222,11111222,11111222' 
TABS,ioos:station:wmo:42046:1,2006-03-04T07:00:00Z,27.8903,-94.0367,4.0,11.0,350.0,14.0,'11111222,11111222,11111222' 
TABS,ioos:station:wmo:42046:1,2006-03-04T07:30:00Z,27.8903,-94.0367,4.0,10.0,360.0,13.0,'11111222,11144222,11111222' 
TABS,ioos:station:wmo:42046:1,2006-03-04T08:00:00Z,27.8903,-94.0367,4.0,9.0,360.0,12.0,'11111222,11144222,11111222' 
TABS,ioos:station:wmo:42046:1,2006-03-04T08:30:00Z,27.8903,-94.0367,4.0,9.0,360.0,11.0,'11111222,11144222,11111222' 
TABS,ioos:station:wmo:42046:1,2006-03-04T09:00:00Z,27.8903,-94.0367,4.0,6.0,20.0,9.0,'11111222,11111222,11111222' 
TABS,ioos:station:wmo:42046:1,2006-03-04T09:30:00Z,27.8903,-94.0367,4.0,8.0,20.0,11.0,'11111222,11111222,11111222' 
TABS,ioos:station:wmo:42046:1,2006-03-04T10:00:00Z,27.8903,-94.0367,4.0,8.0,20.0,10.0,'11111222,11111222,11111222' 
TABS,ioos:station:wmo:42046:1,2006-03-04T10:30:00Z,27.8903,-94.0367,4.0,7.0,10.0,9.0,'11111222,11111222,11111222' 
TABS,ioos:station:wmo:42046:1,2006-03-04T11:00:00Z,27.8903,-94.0367,4.0,7.0,10.0,9.0,'11111222,11111222,11111222' 
TABS,ioos:station:wmo:42046:1,2006-03-04T11:30:00Z,27.8903,-94.0367,4.0,6.0,360.0,8.0,'11111222,11144222,11111222' 
TABS,ioos:station:wmo:42046:1,2006-03-04T12:00:00Z,27.8903,-94.0367,4.0,5.0,360.0,7.0,'11111222,11144222,11111222' 
TABS,ioos:station:wmo:42046:1,2006-03-04T12:30:00Z,27.8903,-94.0367,4.0,4.0,350.0,6.0,'11111222,11111222,11111222' 
TABS,ioos:station:wmo:42046:1,2006-03-04T13:00:00Z,27.8903,-94.0367,4.0,4.0,350.0,6.0,'11111222,11111222,11111222' 
TABS,ioos:station:wmo:42046:1,2006-03-04T13:30:00Z,27.8903,-94.0367,4.0,4.0,340.0,6.0,'11111222,11111222,11111222' 
TABS,ioos:station:wmo:42046:1,2006-03-04T14:00:00Z,27.8903,-94.0367,4.0,3.0,340.0,5.0,'11111222,11111222,11111222' 
TABS,ioos:station:wmo:42046:1,2006-03-04T14:30:00Z,27.8903,-94.0367,4.0,3.0,340.0,5.0,'11111222,11111222,11111222' 
TABS,ioos:station:wmo:42046:1,2006-03-04T15:00:00Z,27.8903,-94.0367,4.0,4.0,330.0,6.0,'11111222,11111222,11111222' 
TABS,ioos:station:wmo:42046:1,2006-03-04T15:30:00Z,27.8903,-94.0367,4.0,4.0,330.0,6.0,'11111222,11111222,11111222' 
TABS,ioos:station:wmo:42046:1,2006-03-04T16:00:00Z,27.8903,-94.0367,4.0,5.0,320.0,6.0,'11111222,11111222,11111222' 
TABS,ioos:station:wmo:42046:1,2006-03-04T16:30:00Z,27.8903,-94.0367,4.0,4.0,320.0,6.0,'11111222,11111222,11111222' 
TABS,ioos:station:wmo:42046:1,2006-03-04T17:00:00Z,27.8903,-94.0367,4.0,4.0,320.0,6.0,'11111222,11111222,11111222' 
TABS,ioos:station:wmo:42046:1,2006-03-04T17:30:00Z,27.8903,-94.0367,4.0,4.0,320.0,5.0,'11111222,11111222,11111222' 
TABS,ioos:station:wmo:42046:1,2006-03-04T18:00:00Z,27.8903,-94.0367,4.0,4.0,320.0,6.0,'11111222,11111222,11111222' 
TABS,ioos:station:wmo:42046:1,2006-03-04T18:30:00Z,27.8903,-94.0367,4.0,6.0,310.0,8.0,'11111222,11111222,11111222' 
TABS,ioos:station:wmo:42046:1,2006-03-04T19:00:00Z,27.8903,-94.0367,4.0,6.0,300.0,8.0,'11111222,11111222,11111222' 
TABS,ioos:station:wmo:42046:1,2006-03-04T19:30:00Z,27.8903,-94.0367,4.0,7.0,300.0,10.0,'11111222,11111222,11111222' 
TABS,ioos:station:wmo:42046:1,2006-03-04T20:00:00Z,27.8903,-94.0367,4.0,7.0,300.0,9.0,'11111222,11111222,11111222' 
TABS,ioos:station:wmo:42046:1,2006-03-04T20:09:00Z,27.8903,-94.0367,4.0,6.042060907,103.3006381,8.64,'11111222,11111222,11111222' 
TABS,ioos:station:wmo:42046:1,2006-03-04T20:30:00Z,27.8903,-94.0367,4.0,6.0,310.0,9.0,'11111222,11111222,11111222' 
TABS,ioos:station:wmo:42046:1,2006-03-04T20:39:00Z,27.8903,-94.0367,4.0,6.422935466,101.6777138,8.66,'11111222,11111222,11111222' 
TABS,ioos:station:wmo:42046:1,2006-03-04T21:00:00Z,27.8903,-94.0367,4.0,7.0,300.0,9.0,'11111222,11111222,11111222' 
TABS,ioos:station:wmo:42046:1,2006-03-04T21:09:00Z,27.8903,-94.0367,4.0,6.548564728,101.8079406,8.56,'11111222,11111222,11111222' 
TABS,ioos:station:wmo:42046:1,2006-03-04T21:30:00Z,27.8903,-94.0367,4.0,7.0,290.0,10.0,'11111222,11111222,11111222' 
TABS,ioos:station:wmo:42046:1,2006-03-04T21:39:00Z,27.8903,-94.0367,4.0,6.585992712,98.11820114,8.57,'11111222,11111222,11111222' 
TABS,ioos:station:wmo:42046:1,2006-03-04T22:00:00Z,27.8903,-94.0367,4.0,8.0,290.0,10.0,'11111222,11111222,11111222' 
TABS,ioos:station:wmo:42046:1,2006-03-04T22:09:00Z,27.8903,-94.0367,4.0,6.077705159,97.18388553,8.6,'11111222,11111222,11111222' 
TABS,ioos:station:wmo:42046:1,2006-03-04T22:30:00Z,27.8903,-94.0367,4.0,8.0,300.0,10.0,'11111222,11111222,11111222' 
TABS,ioos:station:wmo:42046:1,2006-03-04T22:39:00Z,27.8903,-94.0367,4.0,6.140293153,89.4397046,8.78,'11111222,11111222,11111222' 
TABS,ioos:station:wmo:42046:1,2006-03-04T23:00:00Z,27.8903,-94.0367,4.0,7.0,290.0,10.0,'11111222,11111222,11111222' 
TABS,ioos:station:wmo:42046:1,2006-03-04T23:09:00Z,27.8903,-94.0367,4.0,6.571491459,91.22114795,10.07,'11111222,11111222,11111222' 
TABS,ioos:station:wmo:42046:1,2006-03-04T23:30:00Z,27.8903,-94.0367,4.0,7.0,280.0,10.0,'11111222,11111222,11111222' 
TABS,ioos:station:wmo:42046:1,2006-03-04T23:39:00Z,27.8903,-94.0367,4.0,6.851109399,93.2637446,10.24,'11111222,11111222,11111222' 
TABS,ioos:station:wmo:42046:1,2006-03-05T00:00:00Z,27.8903,-94.0367,4.0,1.0,220.0,2.0,'11111222,11111222,11111222' 
TABS,ioos:station:wmo:42046:1,2006-03-05T00:09:00Z,27.8903,-94.0367,4.0,7.410269901,93.01726519,9.9,'11111222,11111222,11111222' 
TABS,ioos:station:wmo:42046:1,2006-03-05T00:30:00Z,27.8903,-94.0367,4.0,2.0,220.0,2.0,'11111222,11111222,11111222' 